Home   Weather   Ruidoso   Past weeks
Flag for USA

Past Weather in Ruidoso, New Mexico, USA — Yesterday and Last 2 Weeks

Now
43 °F

Clear.


Feels Like: 37 °F
Forecast: 67 / 44 °F
Wind: 9 mph from Southwest

Location: Ruidoso Regional

Current Time: Oct 17, 2019 at 4:46:41 am

Latest Report: Oct 17, 2019 at 4:15 am


Visibility: 10 mi

Pressure: 30.21 "Hg (23.50 "Hg at 2051m altitude)

Humidity: 49%

Dew Point: 25 °F

Location of RuidosoLocation

Past Weather in Ruidoso — Graph

°F

Ruidoso Temperature Yesterday

Maximum temperature yesterday: 68 °F (at 2:55 pm)
Minimum temperature yesterday: 37 °F (at 4:15 am)
Average temperature yesterday: 51 °F

High & Low Weather Summary for the Past Weeks

 TemperatureHumidityPressure
High73 °F (Oct 6, 1:55 pm)100% (Oct 3, 12:55 pm)30.50 "Hg (Oct 3, 12:55 pm)
Low25 °F (Oct 11, 4:55 am)17% (Oct 13, 1:55 pm)29.96 "Hg (Oct 9, 6:55 pm)
Average55 °F55%30.24 "Hg
* Reported Oct 2 3:15 am — Oct 17 3:35 am, Ruidoso. Weather by CustomWeather, © 2019

Note: Actual official high and low records may vary slightly from our data, if they occured in-between our weather recording intervals... More about our weather records

Advertising

Ruidoso Weather History for the Previous 24 Hours

Scroll right to see more
 ConditionsComfort  
Time TempWeatherWind HumidityBarometerVisibility
3:35 am
Thu, Oct 17
45 °FClear.6 mph46%30.22 "Hg10 mi
3:15 am46 °FClear.8 mph43%30.22 "Hg10 mi
2:55 am46 °FClear.7 mph40%30.22 "Hg10 mi
2:15 am45 °FClear.7 mph46%30.22 "Hg10 mi
1:55 am45 °FClear.9 mph49%30.23 "Hg10 mi
1:35 am45 °FClear.9 mph49%30.22 "Hg10 mi
1:15 am46 °FClear.8 mph46%30.22 "Hg10 mi
12:55 am45 °FClear.8 mph49%30.23 "Hg10 mi
12:35 am46 °FClear.9 mph46%30.23 "Hg10 mi
12:15 am45 °FClear.9 mph46%30.24 "Hg10 mi
11:55 pm
Wed, Oct 16
45 °FClear.7 mph49%30.25 "Hg10 mi
11:35 pm46 °FClear.8 mph43%30.26 "Hg10 mi
11:15 pm46 °FClear.9 mph50%30.26 "Hg10 mi
10:55 pm48 °FClear.9 mph40%30.27 "Hg10 mi
10:35 pm45 °FClear.10 mph49%30.27 "Hg10 mi
10:15 pm46 °FClear.7 mph50%30.27 "Hg10 mi
9:55 pm48 °FClear.6 mph43%30.27 "Hg10 mi
9:35 pm48 °FClear.7 mph43%30.27 "Hg10 mi
9:15 pm50 °FClear.5 mph37%30.28 "Hg10 mi
8:55 pm52 °FClear.No wind35%30.28 "Hg10 mi
8:35 pm54 °FClear.No wind33%30.28 "Hg10 mi
7:55 pm50 °FClear.No wind40%30.28 "Hg10 mi
7:35 pm52 °FClear.9 mph38%30.28 "Hg10 mi
7:15 pm54 °FClear.8 mph35%30.28 "Hg10 mi
6:55 pm57 °FClear.No wind29%30.28 "Hg10 mi
6:35 pm57 °FClear.3 mph29%30.29 "Hg10 mi
5:55 pm63 °FSunny.8 mph24%30.29 "Hg10 mi
5:35 pm64 °FSunny.10 mph21%30.29 "Hg10 mi
5:15 pm64 °FSunny.13 mph22%30.29 "Hg10 mi
4:55 pm66 °FSunny.9 mph21%30.29 "Hg10 mi
4:35 pm66 °FSunny.8 mph22%30.29 "Hg10 mi
4:15 pm66 °FSunny.7 mph21%30.30 "Hg10 mi
3:55 pm66 °FSunny.7 mph21%30.30 "Hg10 mi
3:35 pm66 °FSunny.5 mph21%30.30 "Hg10 mi
3:15 pm66 °FSunny.9 mph21%30.31 "Hg10 mi
2:55 pm68 °FSunny.8 mph18%30.31 "Hg10 mi
2:35 pm66 °FSunny.9 mph19%30.32 "Hg10 mi
2:15 pm66 °FSunny.9 mph21%30.32 "Hg10 mi
1:55 pm66 °FSunny.9 mph21%30.33 "Hg10 mi
1:35 pm66 °FSunny.12 mph22%30.34 "Hg10 mi
1:15 pm66 °FSunny.9 mph22%30.35 "Hg10 mi
12:35 pm64 °FSunny.7 mph24%30.36 "Hg10 mi
12:15 pm64 °FSunny.8 mph24%30.37 "Hg10 mi
11:55 am63 °FSunny.7 mph27%30.38 "Hg10 mi
11:35 am61 °FSunny.6 mph29%30.38 "Hg10 mi
11:15 am59 °FSunny.5 mph29%30.38 "Hg10 mi
10:35 am55 °FSunny.6 mph38%30.39 "Hg10 mi
10:15 am54 °FSunny.5 mph41%30.40 "Hg10 mi
9:55 am54 °FSunny.3 mph41%30.40 "Hg10 mi
9:35 am52 °FSunny.No wind38%30.41 "Hg10 mi
9:15 am48 °FSunny.No wind46%30.41 "Hg10 mi
8:35 am45 °FSunny.No wind49%30.40 "Hg10 mi
8:15 am43 °FSunny.No wind57%30.40 "Hg10 mi
7:35 am37 °FSunny.6 mph65%30.39 "Hg10 mi
7:15 am37 °FSunny.6 mph65%30.40 "Hg10 mi
6:55 am39 °FClear.5 mph61%30.39 "Hg10 mi
6:35 am39 °FClear.5 mph61%30.40 "Hg10 mi
6:15 am37 °FClear.5 mph65%30.40 "Hg10 mi
5:55 am37 °FClear.6 mph65%30.40 "Hg10 mi
5:35 am39 °FClear.6 mph61%30.40 "Hg10 mi
5:15 am37 °FClear.6 mph65%30.40 "Hg10 mi
4:55 am37 °FClear.8 mph65%30.40 "Hg10 mi
4:35 am37 °FClear.8 mph65%30.40 "Hg10 mi
4:15 am37 °FClear.7 mph65%30.40 "Hg10 mi
Weather by CustomWeather, © 2019

See weather overview